FW4833 Weather Reports


Display with metric or nautical units.
time (UTC)temp
F
wind
direction
speed
MPH
gust
MPH
rain 1hr
in
rain 24hr
in
rain mn
in
humidity
%
barometer
mb
20260507132529 64 360 3.0 5.0 0.00 0.00 0.00 32 1012.4
20260507132028 64 9 2.0 5.0 0.00 0.00 0.00 32 1012.4
20260507131527 64 360 3.0 6.0 0.00 0.00 0.00 32 1012.3
20260507131031 64 10 2.0 6.0 0.00 0.00 0.00 32 1012.2
20260507130524 63 5 2.0 6.0 0.00 0.00 0.00 33 1012.2
20260507130037 63 5 2.0 6.0 0.00 0.00 0.00 33 1012.3
20260507125523 63 360 3.0 6.0 0.00 0.00 0.00 33 1012.3
20260507125025 63 355 2.0 6.0 0.00 0.00 0.00 33 1012.2
20260507124521 63 360 3.0 9.0 0.00 0.00 0.00 33 1012.2
20260507124020 63 349 4.0 9.0 0.00 0.00 0.00 33 1012.3
20260507123520 62 344 3.0 8.0 0.00 0.00 0.00 33 1012.3
20260507123021 62 355 3.0 8.0 0.00 0.00 0.00 33 1012.3
20260507122519 62 355 4.0 8.0 0.00 0.00 0.00 33 1012.1
20260507122019 62 333 5.0 8.0 0.00 0.00 0.00 33 1012.2
20260507121518 62 345 4.0 6.0 0.00 0.00 0.00 33 1012.2
20260507121019 62 344 4.0 6.0 0.00 0.00 0.00 33 1012.2
20260507120518 62 53 1.0 4.0 0.00 0.00 0.00 33 1012.3
20260507120117 62 53 1.0 4.0 0.00 0.00 0.00 33 1012.3
20260507115516 62 53 1.0 4.0 0.00 0.00 0.00 33 1012.3
20260507115015 62 53 1.0 3.0 0.00 0.00 0.00 33 1012.5
20260507114520 62 53 1.0 3.0 0.00 0.00 0.00 33 1012.5
20260507114014 61 53 0.0 3.0 0.00 0.00 0.00 33 1012.6
20260507113516 62 53 0.0 2.0 0.00 0.00 0.00 33 1012.7
20260507113013 62 53 0.0 3.0 0.00 0.00 0.00 32 1012.7
20260507112514 63 53 0.0 4.0 0.00 0.00 0.00 32 1012.7
20260507112013 63 53 2.0 4.0 0.00 0.00 0.00 31 1012.8
20260507111512 63 53 2.0 4.0 0.00 0.00 0.00 31 1012.8
20260507111012 63 67 2.0 4.0 0.00 0.00 0.00 32 1012.7
20260507110512 62 69 2.0 4.0 0.00 0.00 0.00 33 1012.8
20260507110013 61 70 2.0 4.0 0.00 0.00 0.00 33 1012.8
20260507105511 61 70 2.0 3.0 0.00 0.00 0.00 33 1012.8
20260507105013 61 70 1.0 3.0 0.00 0.00 0.00 33 1012.9
20260507104509 61 70 1.0 2.0 0.00 0.00 0.00 32 1012.8
20260507104007 62 70 0.0 2.0 0.00 0.00 0.00 32 1012.9
20260507103506 62 70 1.0 3.0 0.00 0.00 0.00 31 1012.9
20260507103005 63 70 1.0 4.0 0.00 0.00 0.00 31 1013.0
20260507102506 64 71 2.0 6.0 0.00 0.00 0.00 31 1012.9
20260507102007 64 86 2.0 6.0 0.00 0.00 0.00 30 1013.0
20260507101507 64 19 2.0 5.0 0.00 0.00 0.00 30 1012.8
20260507101005 64 14 2.0 5.0 0.00 0.00 0.00 30 1012.8
20260507100506 65 360 2.0 8.0 0.00 0.00 0.00 30 1012.8
20260507100007 65 355 3.0 8.0 0.00 0.00 0.00 30 1012.8
20260507095505 65 350 4.0 8.0 0.00 0.00 0.00 30 1012.9
20260507095003 65 335 4.0 8.0 0.00 0.00 0.00 30 1012.8
20260507094504 65 344 4.0 8.0 0.00 0.00 0.00 30 1012.8
20260507094008 65 348 3.0 6.0 0.00 0.00 0.00 30 1012.9
20260507093504 64 341 3.0 6.0 0.00 0.00 0.00 30 1012.9
20260507093003 64 299 2.0 4.0 0.00 0.00 0.00 30 1013.0
20260507092504 64 242 2.0 3.0 0.00 0.00 0.00 29 1013.0
20260507092004 64 240 1.0 3.0 0.00 0.00 0.00 29 1012.9
20260507091502 64 240 1.0 4.0 0.00 0.00 0.00 30 1013.1
20260507091002 64 238 2.0 3.0 0.00 0.00 0.00 30 1013.0
20260507090502 64 238 0.0 2.0 0.00 0.00 0.00 30 1013.1
20260507090001 65 238 1.0 2.0 0.00 0.00 0.00 29 1013.2
20260507085600 65 238 1.0 3.0 0.00 0.00 0.00 29 1013.3
20260507085100 64 238 0.0 3.0 0.00 0.00 0.00 30 1013.3
20260507084600 63 238 1.0 3.0 0.00 0.00 0.00 31 1013.4
20260507084058 63 238 0.0 1.0 0.00 0.00 0.00 29 1013.4
20260507083600 63 238 0.0 1.0 0.00 0.00 0.00 30 1013.4
20260507083059 64 238 0.0 2.0 0.00 0.00 0.00 29 1013.3
20260507082559 65 238 0.0 3.0 0.00 0.00 0.00 28 1013.3
20260507082057 65 238 0.0 3.0 0.00 0.00 0.00 28 1013.3
20260507081601 66 238 0.0 4.0 0.00 0.00 0.00 27 1013.3
20260507081059 66 238 1.0 4.0 0.00 0.00 0.00 27 1013.3
20260507080556 66 238 2.0 4.0 0.00 0.00 0.00 28 1013.3
20260507080114 65 236 2.0 4.0 0.00 0.00 0.00 28 1013.3
20260507075559 64 225 0.0 3.0 0.00 0.00 0.00 28 1013.2
20260507075057 64 225 2.0 3.0 0.00 0.00 0.00 29 1013.3
20260507074557 63 225 2.0 3.0 0.00 0.00 0.00 28 1013.3
20260507074054 64 225 1.0 2.0 0.00 0.00 0.00 29 1013.2
20260507073556 64 225 0.0 1.0 0.00 0.00 0.00 28 1013.3
20260507073052 65 225 0.0 0.0 0.00 0.00 0.00 28 1013.3
20260507072553 66 225 0.0 1.0 0.00 0.00 0.00 27 1013.3
20260507072050 66 225 0.0 1.0 0.00 0.00 0.00 27 1013.3
20260507071550 67 225 0.0 3.0 0.00 0.00 0.00 27 1013.4
20260507071049 67 225 1.0 3.0 0.00 0.00 0.00 27 1013.3
20260507070549 66 225 1.0 3.0 0.00 0.00 0.00 27 1013.3
20260507070052 67 225 1.0 3.0 0.00 0.00 0.00 27 1013.3
20260507065549 67 225 1.0 3.0 0.00 0.00 0.00 27 1013.4
20260507065047 67 224 1.0 3.0 0.00 0.00 0.00 27 1013.3
20260507064618 68 224 0.0 3.0 0.00 0.00 0.00 26 1013.4
20260507064049 69 224 1.0 3.0 0.00 0.00 0.00 26 1013.3
20260507063546 69 224 1.0 5.0 0.00 0.00 0.00 26 1013.3
20260507063049 69 223 2.0 5.0 0.00 0.00 0.00 25 1013.3
20260507062545 69 218 1.0 3.0 0.00 0.00 0.00 25 1013.2
20260507062045 69 218 1.0 4.0 0.00 0.00 0.00 25 1013.2
20260507061546 69 217 2.0 5.0 0.00 0.00 0.00 25 1013.2
20260507061046 70 218 2.0 5.0 0.00 0.00 0.00 25 1013.3
20260507060545 70 219 1.0 5.0 0.00 0.00 0.00 25 1013.2
20260507060107 70 220 2.0 5.0 0.00 0.00 0.00 25 1013.2
20260507055547 70 223 1.0 5.0 0.00 0.00 0.00 24 1013.1
20260507055044 71 223 2.0 5.0 0.00 0.00 0.00 24 1013.3
20260507054551 71 227 3.0 5.0 0.00 0.00 0.00 24 1013.2
20260507054045 71 234 2.0 5.0 0.00 0.00 0.00 24 1013.1
20260507053545 71 238 2.0 5.0 0.00 0.00 0.00 24 1013.2
20260507053044 71 240 2.0 5.0 0.00 0.00 0.00 24 1013.3
20260507052544 71 234 1.0 5.0 0.00 0.00 0.00 24 1013.3
20260507052044 71 233 2.0 4.0 0.00 0.00 0.00 24 1013.3
20260507051559 71 233 1.0 5.0 0.00 0.00 0.00 24 1013.2
20260507051045 71 234 2.0 5.0 0.00 0.00 0.00 24 1013.2
20260507050544 72 234 2.0 5.0 0.00 0.00 0.00 24 1013.2
20260507050048 72 237 1.0 5.0 0.00 0.00 0.00 23 1013.2
20260507045544 72 238 2.0 5.0 0.00 0.00 0.00 23 1013.3
20260507045044 72 229 2.0 5.0 0.00 0.00 0.00 23 1013.1
20260507044542 72 229 2.0 5.0 0.00 0.00 0.00 23 1013.1
20260507044046 72 227 3.0 5.0 0.00 0.00 0.00 23 1013.1
20260507043542 72 242 2.0 5.0 0.00 0.00 0.00 23 1013.1
20260507043043 73 233 2.0 5.0 0.00 0.00 0.00 23 1013.0
20260507042542 73 230 2.0 5.0 0.00 0.00 0.00 23 1013.0
20260507042041 73 228 2.0 6.0 0.00 0.00 0.00 23 1012.9
20260507041542 73 227 2.0 6.0 0.00 0.00 0.00 22 1012.8
20260507041042 73 227 2.0 5.0 0.00 0.00 0.00 22 1012.8
20260507040541 73 227 2.0 5.0 0.00 0.00 0.00 22 1012.7
20260507040041 74 221 2.0 8.0 0.00 0.00 0.00 22 1012.5
20260507035540 74 221 3.0 7.0 0.00 0.00 0.00 22 1012.7
20260507035040 74 216 3.0 7.0 0.00 0.00 0.00 22 1012.6
20260507034540 75 217 4.0 7.0 0.00 0.00 0.00 21 1012.5
20260507034039 75 226 3.0 8.0 0.00 0.00 0.00 21 1012.3
20260507033539 75 222 3.0 8.0 0.00 0.00 0.00 21 1012.3
20260507033041 75 244 4.0 9.0 0.00 0.00 0.00 21 1012.2
20260507032539 76 231 4.0 8.0 0.00 0.00 0.00 21 1012.1
20260507032041 76 217 4.0 8.0 0.00 0.00 0.00 21 1012.1
20260507031538 76 234 3.0 8.0 0.00 0.00 0.00 21 1012.0
20260507031038 76 225 4.0 10.0 0.00 0.00 0.00 21 1012.0
20260507030538 77 213 4.0 10.0 0.00 0.00 0.00 21 1012.0
20260507030039 77 221 5.0 10.0 0.00 0.00 0.00 21 1011.9
20260507025538 77 229 5.0 10.0 0.00 0.00 0.00 21 1011.9
20260507025039 77 201 4.0 9.0 0.00 0.00 0.00 21 1011.8
20260507024537 77 214 5.0 9.0 0.00 0.00 0.00 21 1011.8
20260507024038 78 215 4.0 9.0 0.00 0.00 0.00 20 1011.7
20260507023537 78 219 4.0 9.0 0.00 0.00 0.00 20 1011.4
20260507023042 78 223 4.0 10.0 0.00 0.00 0.00 20 1011.4
20260507022537 78 234 4.0 10.0 0.00 0.00 0.00 20 1011.4
20260507022037 78 228 4.0 10.0 0.00 0.00 0.00 20 1011.4
20260507021540 79 221 5.0 10.0 0.00 0.00 0.00 20 1011.3
20260507021036 79 217 6.0 10.0 0.00 0.00 0.00 20 1011.5
20260507020536 79 208 5.0 10.0 0.00 0.00 0.00 20 1011.5
20260507020036 79 213 5.0 12.0 0.00 0.00 0.00 20 1011.4
20260507015540 79 227 6.0 12.0 0.00 0.00 0.00 20 1011.3
20260507015034 80 199 5.0 14.0 0.00 0.00 0.00 19 1011.4
20260507014534 80 244 6.0 12.0 0.00 0.00 0.00 19 1011.3
20260507014034 80 198 6.0 12.0 0.00 0.00 0.00 19 1011.2
20260507013533 80 190 7.0 16.0 0.00 0.00 0.00 19 1011.3
20260507013033 80 215 7.0 16.0 0.00 0.00 0.00 19 1011.2
20260507012537 80 205 9.0 15.0 0.00 0.00 0.00 19 1011.2
20260507012032 81 233 7.0 14.0 0.00 0.00 0.00 19 1011.2
20260507011537 81 252 7.0 16.0 0.00 0.00 0.00 19 1011.1
20260507011031 81 227 7.0 16.0 0.00 0.00 0.00 19 1011.1
20260507010532 81 199 6.0 17.0 0.00 0.00 0.00 19 1011.2
20260507010048 81 205 6.0 17.0 0.00 0.00 0.00 19 1011.2
20260507005531 81 229 6.0 12.0 0.00 0.00 0.00 19 1011.0
20260507005032 81 213 7.0 12.0 0.00 0.00 0.00 19 1011.1
20260507004533 82 212 5.0 11.0 0.00 0.00 0.00 19 1011.1
20260507004029 82 221 5.0 12.0 0.00 0.00 0.00 19 1011.0
20260507003529 82 211 7.0 13.0 0.00 0.00 0.00 19 1011.0
20260507003028 82 217 6.0 12.0 0.00 0.00 0.00 19 1011.1
20260507002528 82 232 5.0 10.0 0.00 0.00 0.00 19 1011.0
20260507002030 82 237 5.0 11.0 0.00 0.00 0.00 19 1011.2
20260507001527 82 220 5.0 12.0 0.00 0.00 0.00 19 1011.2
20260507001027 82 208 6.0 11.0 0.00 0.00 0.00 19 1011.2
20260507000526 81 212 5.0 12.0 0.00 0.00 0.00 19 1011.1
20260507000026 82 204 5.0 12.0 0.00 0.00 0.00 19 1011.2
20260506235527 82 198 3.0 12.0 0.00 0.00 0.00 19 1011.1
20260506235024 82 246 3.0 12.0 0.00 0.00 0.00 19 1011.2
20260506234527 82 224 7.0 11.0 0.00 0.00 0.00 19 1011.1
20260506234023 83 214 6.0 10.0 0.00 0.00 0.00 18 1011.2
20260506233522 82 256 4.0 13.0 0.00 0.00 0.00 19 1011.2
20260506233024 82 191 8.0 13.0 0.00 0.00 0.00 19 1011.2
20260506232524 82 189 6.0 11.0 0.00 0.00 0.00 19 1011.4
20260506232021 82 176 7.0 11.0 0.00 0.00 0.00 19 1011.3
20260506231521 82 223 5.0 11.0 0.00 0.00 0.00 19 1011.3
20260506231022 82 205 5.0 11.0 0.00 0.00 0.00 20 1011.4
20260506230519 82 188 3.0 11.0 0.00 0.00 0.00 19 1011.4
20260506230025 82 162 5.0 13.0 0.00 0.00 0.00 19 1011.5
20260506225518 82 209 7.0 14.0 0.00 0.00 0.00 19 1011.5
20260506225017 82 217 6.0 11.0 0.00 0.00 0.00 20 1011.5
20260506224517 82 225 4.0 10.0 0.00 0.00 0.00 19 1011.7
20260506224017 82 219 3.0 10.0 0.00 0.00 0.00 20 1011.8
20260506223515 82 207 2.0 16.0 0.00 0.00 0.00 19 1011.8
20260506223015 82 254 8.0 16.0 0.00 0.00 0.00 19 1011.8
20260506222515 83 246 5.0 14.0 0.00 0.00 0.00 19 1011.9
20260506222018 83 222 7.0 14.0 0.00 0.00 0.00 19 1012.1
20260506221512 82 265 4.0 14.0 0.00 0.00 0.00 20 1012.2
20260506221013 82 190 3.0 14.0 0.00 0.00 0.00 20 1012.2
20260506220512 81 217 2.0 10.0 0.00 0.00 0.00 20 1012.2
20260506220016 82 257 5.0 10.0 0.00 0.00 0.00 20 1012.3
20260506215515 81 212 4.0 11.0 0.00 0.00 0.00 20 1012.4
20260506215011 82 198 6.0 11.0 0.00 0.00 0.00 20 1012.4
20260506214511 82 192 5.0 15.0 0.00 0.00 0.00 19 1012.6
20260506214012 81 237 2.0 13.0 0.00 0.00 0.00 20 1012.6
20260506213510 82 252 5.0 13.0 0.00 0.00 0.00 20 1012.6
20260506213010 82 234 3.0 14.0 0.00 0.00 0.00 20 1012.8
20260506212510 81 259 4.0 13.0 0.00 0.00 0.00 20 1012.9
20260506212011 82 249 6.0 12.0 0.00 0.00 0.00 20 1013.0
20260506211509 82 300 5.0 10.0 0.00 0.00 0.00 20 1013.2
20260506211008 82 230 6.0 11.0 0.00 0.00 0.00 20 1013.2
20260506210508 81 196 3.0 11.0 0.00 0.00 0.00 20 1013.2
20260506210008 81 228 4.0 11.0 0.00 0.00 0.00 20 1013.3
20260506205506 81 252 5.0 15.0 0.00 0.00 0.00 21 1013.3
20260506205006 80 219 5.0 15.0 0.00 0.00 0.00 21 1013.3
20260506204505 80 187 5.0 10.0 0.00 0.00 0.00 21 1013.5
20260506204005 80 200 4.0 9.0 0.00 0.00 0.00 21 1013.5
20260506203504 79 138 5.0 11.0 0.00 0.00 0.00 21 1013.6
20260506203004 80 162 4.0 14.0 0.00 0.00 0.00 22 1013.7
20260506202504 80 231 5.0 15.0 0.00 0.00 0.00 22 1013.7
20260506202004 78 196 6.0 10.0 0.00 0.00 0.00 22 1013.7
20260506201513 78 153 3.0 9.0 0.00 0.00 0.00 22 1013.7
20260506201004 78 139 0.0 10.0 0.00 0.00 0.00 22 1013.8
20260506200503 79 213 1.0 11.0 0.00 0.00 0.00 22 1013.9
20260506200003 79 238 3.0 11.0 0.00 0.00 0.00 22 1014.0
20260506195502 78 144 1.0 10.0 0.00 0.00 0.00 23 1013.9
20260506195001 78 233 4.0 10.0 0.00 0.00 0.00 22 1014.2
20260506194505 77 87 0.0 8.0 0.00 0.00 0.00 23 1014.2
20260506194001 77 190 1.0 10.0 0.00 0.00 0.00 23 1014.3
20260506193501 78 197 4.0 9.0 0.00 0.00 0.00 22 1014.3
20260506193001 77 355 1.0 8.0 0.00 0.00 0.00 23 1014.3
20260506192504 78 219 3.0 14.0 0.00 0.00 0.00 22 1014.4
20260506192100 79 284 6.0 14.0 0.00 0.00 0.00 22 1014.4
20260506191623 79 213 2.0 7.0 0.00 0.00 0.00 23 1014.5
20260506191059 77 213 1.0 7.0 0.00 0.00 0.00 23 1014.5
20260506190600 77 189 0.0 8.0 0.00 0.00 0.00 23 1014.5
20260506190058 77 250 1.0 11.0 0.00 0.00 0.00 23 1014.6
20260506185557 78 200 5.0 11.0 0.00 0.00 0.00 22 1014.6
20260506185056 78 303 1.0 7.0 0.00 0.00 0.00 23 1014.5
20260506184615 78 252 0.0 7.0 0.00 0.00 0.00 23 1014.6
20260506184056 78 239 3.0 7.0 0.00 0.00 0.00 23 1014.8
20260506183556 77 223 0.0 6.0 0.00 0.00 0.00 24 1014.9
20260506183053 75 244 1.0 6.0 0.00 0.00 0.00 25 1014.9
20260506182552 75 202 0.0 5.0 0.00 0.00 0.00 25 1014.9
20260506182051 75 173 1.0 8.0 0.00 0.00 0.00 24 1015.1
20260506181550 75 175 1.0 8.0 0.00 0.00 0.00 25 1015.2
20260506181049 75 254 1.0 7.0 0.00 0.00 0.00 24 1015.2
20260506180548 76 247 1.0 7.0 0.00 0.00 0.00 24 1015.2
20260506180046 75 360 0.0 7.0 0.00 0.00 0.00 24 1015.2
20260506175545 75 261 3.0 7.0 0.00 0.00 0.00 25 1015.2
20260506175047 75 254 1.0 8.0 0.00 0.00 0.00 25 1015.3
20260506174542 75 276 0.0 9.0 0.00 0.00 0.00 24 1015.2
20260506174041 75 240 3.0 9.0 0.00 0.00 0.00 27 1015.3
20260506173539 73 163 0.0 4.0 0.00 0.00 0.00 26 1015.2
20260506173140 74 225 0.0 3.0 0.00 0.00 0.00 27 1015.3
20260506172537 74 244 0.0 5.0 0.00 0.00 0.00 27 1015.3
20260506172040 73 259 1.0 5.0 0.00 0.00 0.00 29 1015.3
20260506171547 73 203 0.0 7.0 0.00 0.00 0.00 29 1015.3
20260506171034 73 271 1.0 7.0 0.00 0.00 0.00 28 1015.2
20260506170533 73 247 1.0 6.0 0.00 0.00 0.00 29 1015.3
20260506170035 72 261 1.0 5.0 0.00 0.00 0.00 29 1015.2
20260506165535 73 194 0.0 6.0 0.00 0.00 0.00 29 1015.2
20260506165028 73 257 0.0 4.0 0.00 0.00 0.00 29 1015.1
20260506164526 72 317 1.0 4.0 0.00 0.00 0.00 30 1015.2
20260506164025 72 260 2.0 4.0 0.00 0.00 0.00 29 1015.1
20260506163526 72 272 1.0 5.0 0.00 0.00 0.00 29 1015.2
20260506163025 71 269 1.0 5.0 0.00 0.00 0.00 30 1015.1
20260506162521 70 238 0.0 3.0 0.00 0.00 0.00 31 1015.2
20260506162020 70 261 0.0 4.0 0.00 0.00 0.00 30 1015.1
20260506161519 70 257 1.0 4.0 0.00 0.00 0.00 31 1015.1
20260506161017 69 265 0.0 4.0 0.00 0.00 0.00 31 1015.1
20260506160515 70 246 0.0 4.0 0.00 0.00 0.00 31 1015.0
20260506160016 69 247 0.0 4.0 0.00 0.00 0.00 31 1014.9
20260506155512 69 244 1.0 3.0 0.00 0.00 0.00 32 1015.0
20260506155010 68 255 1.0 3.0 0.00 0.00 0.00 32 1015.1
20260506154511 67 235 0.0 2.0 0.00 0.00 0.00 33 1015.0
20260506154009 67 239 0.0 2.0 0.00 0.00 0.00 33 1015.0
20260506153508 68 275 0.0 2.0 0.00 0.00 0.00 32 1015.0
20260506153006 67 277 0.0 1.0 0.00 0.00 0.00 33 1015.1
20260506152508 67 277 0.0 1.0 0.00 0.00 0.00 33 1015.1
20260506152005 66 277 0.0 1.0 0.00 0.00 0.00 34 1015.1
20260506151504 65 277 0.0 2.0 0.00 0.00 0.00 34 1015.2
20260506151004 65 277 0.0 2.0 0.00 0.00 0.00 34 1015.2
20260506150505 65 277 0.0 3.0 0.00 0.00 0.00 35 1015.1
20260506145600 65 255 0.0 3.0 0.00 0.00 0.00 35 1015.1
20260506145057 64 246 0.0 2.0 0.00 0.00 0.00 36 1015.2
20260506144603 63 245 0.0 2.0 0.00 0.00 0.00 36 1015.1
20260506144055 63 244 0.0 1.0 0.00 0.00 0.00 36 1015.1
20260506143555 63 244 0.0 1.0 0.00 0.00 0.00 37 1015.0
20260506143054 63 245 0.0 1.0 0.00 0.00 0.00 37 1015.0
20260506142552 62 244 0.0 0.0 0.00 0.00 0.00 38 1015.0
20260506142052 61 244 0.0 1.0 0.00 0.00 0.00 39 1015.0
20260506141551 61 244 0.0 1.0 0.00 0.00 0.00 39 1015.0
20260506141049 61 244 0.0 0.0 0.00 0.00 0.00 40 1015.0
20260506140548 60 244 0.0 0.0 0.00 0.00 0.00 41 1014.9
20260506140047 59 244 0.0 0.0 0.00 0.00 0.00 41 1014.8
20260506135546 59 244 0.0 0.0 0.00 0.00 0.00 42 1014.7
20260506135044 58 244 0.0 0.0 0.00 0.00 0.00 43 1014.7
20260506134542 58 244 0.0 0.0 0.00 0.00 0.00 43 1014.6
20260506134040 57 244 0.0 0.0 0.00 0.00 0.00 44 1014.5
20260506133539 57 244 0.0 0.0 0.00 0.00 0.00 43 1014.5
20260506133039 56 244 0.0 1.0 0.00 0.00 0.00 44 1014.4